Temp
55 44 40 46 51 53 53 51 48 52 59 56 53 53 55 60 57 55 58 56 56 55 58 58 57 55 55 55 55 56 56 57 57 57 56 56 56 60 60 61 66 70 73 74
49 43 52 57 57 55 52 48 47 53 59 56 51 49 54 56 57 58 58 52 52 52 53 55 53 52 51 51 51 51 51 52 53 54 55 56 56 58 60 63 63 65 69 72
46 52 61 58 55 53 50 48 47 48 52 50 48 46 50 57 60 56 54 53 51 49 48 49 49 47 47 46 46 47 47 48 49 51 52 53 55 55 55 58 60 63 67 71
50 58 57 54 51 53 44 53 53 50 43 34 46 31 45 53 52 49 49 47 46 46 47 47 45 44 43 43 44 44 45 44 47 48 46 45 46 48 52 53 57 58 61 65
47 51 50 49 51 55 47 54 49 47 40 38 42 31 42 51 42 43 44 44 43 44 43 42 42 41 42 42 41 41 42 43 44 43 44 42 43 48 50 51 51 54 57 61
51 58 54 52 57 54 55 49 46 43 37 28 39 37 33 36 40 41 43 43 42 40 40 39 40 40 39 39 39 38 39 40 41 41 41 40 40 44 46 48 47 49 52 56
47 50 55 59 48 51 47 39 24 23 24 26 44 40 37 40 41 41 40 40 41 39 37 36 37 36 36 35 36 37 38 38 39 38 38 39 41 42 43 44 46 47 48 51
35 32 50 55 49 44 43 40 28 22 21 27 41 32 33 41 43 44 42 40 39 37 37 35 35 34 34 35 35 36 36 36 37 36 36 38 40 41 42 44 45 46 48 50
37 39 51 54 53 49 42 33 45 34 34 28 32 35 38 41 38 39 39 38 34 33 33 33 33 33 33 34 34 35 35 35 36 35 36 37 39 40 41 43 45 46 48 51
42 31 47 51 52 49 44 47 28 28 21 20 28 33 29 30 31 35 35 34 33 32 31 31 31 31 33 33 35 35 35 34 34 35 36 38 40 42 44 45 45 46 48 50
44 37 37 46 41 39 40 34 37 34 30 20 15 17 32 28 32 32 35 36 32 31 29 29 30 31 32 33 33 34 33 33 33 34 35 37 39 41 42 43 45 46 48 49
43 36 26 35 46 49 44 40 38 22 26 30 28 21 34 31 34 35 35 36 35 32 28 28 29 30 31 31 32 32 32 32 32 34 35 35 37 39 40 39 41 43 44 49
42 32 22 28 35 42 36 39 39 37 32 28 19 19 33 34 34 35 32 33 32 31 29 30 30 29 29 31 31 32 31 31 32 33 33 34 35 35 36 37 38 39 40 41
43 34 27 23 29 35 30 37 39 35 26 25 23 20 28 32 33 32 31 31 30 29 28 28 28 28 29 30 30 31 30 31 32 32 32 32 33 34 34 36 36 36 37 37
37 28 26 31 37 37 34 33 36 29 33 24 23 25 27 31 30 29 30 30 29 27 26 26 26 26 27 28 29 31 30 30 31 31 30 31 32 34 34 34 34 35 35 35
38 25 23 19 35 35 30 33 34 31 32 26 26 25 32 32 31 28 27 27 26 25 26 26 27 27 27 28 27 29 30 29 30 29 28 30 31 32 32 33 32 32 32 32
31 25 19 19 34 35 24 28 30 33 36 35 28 29 31 28 27 26 26 26 24 25 25 25 25 25 25 26 28 27 28 30 29 28 29 28 29 29 30 32 32 30 30 30
28 26 27 22 26 18 26 37 37 33 36 33 30 30 31 28 27 27 27 26 25 25 24 24 24 25 25 27 27 28 29 29 28 27 27 28 26 27 28 29 29 30 29 28
36 29 22 20 22 28 30 33 33 30 31 36 32 32 29 28 28 25 28 26 24 23 23 23 24 25 25 25 27 26 27 28 28 27 26 28 26 25 25 26 27 27 28 27
37 34 25 26 23 21 28 39 43 40 24 38 34 30 28 28 24 22 27 26 24 23 22 21 22 25 24 24 26 22 23 25 25 26 26 27 27 25 23 24 24 26 25 25
29 29 26 25 24 28 37 41 44 24 25 37 35 32 29 26 26 25 27 25 25 21 20 21 20 19 19 21 21 21 20 22 22 25 27 26 26 25 24 24 24 24 25 24
29 24 24 27 25 23 39 39 30 31 34 36 36 33 28 24 24 23 23 22 24 22 20 18 16 17 20 20 19 20 21 20 21 21 22 24 24 24 23 22 22 22 22 21
29 31 26 28 24 31 34 31 36 36 31 30 30 29 26 22 22 23 24 25 24 21 20 19 16 14 18 20 21 22 22 20 21 23 21 19 22 22 22 20 20 21 20 19
33 39 28 27 27 31 34 36 36 35 32 31 30 28 27 23 24 23 25 26 25 24 22 23 20 17 18 17 21 21 24 24 20 22 21 22 18 20 19 20 21 20 19 19
31 33 29 27 29 31 34 34 33 33 33 31 31 29 27 27 25 24 23 23 23 23 22 23 23 23 21 23 20 21 24 25 25 22 23 22 25 21 18 21 20 21 23 23
31 27 24 22 30 29 28 32 34 32 31 32 30 28 29 29 27 27 26 27 28 26 28 27 25 24 23 23 23 25 27 26 24 25 25 23 24 23 24 22 22 29 28 28
MSLP
1013.13 1013.96 1013.81 1013.18 1012.81 1012.49 1012.34 1012.12 1011.67 1011.10 1010.45 1010.15 1010.17 1009.84 1010.08 1009.74 1009.77 1009.93 1010.21 1010.93 1012.43 1013.57 1014.15 1014.28 1014.25 1014.53 1014.53 1014.57 1014.56 1014.36 1014.04 1013.94 1013.81 1013.50 1013.25 1012.69 1012.12 1011.26 1010.33 1009.53 1008.85 1007.56 1006.89 1007.46
1013.54 1013.32 1012.85 1012.73 1012.32 1011.93 1011.79 1011.74 1011.56 1010.95 1010.92 1011.26 1010.99 1010.45 1010.14 1010.01 1010.30 1010.92 1011.43 1012.83 1013.83 1014.38 1014.71 1015.15 1015.39 1015.54 1015.72 1015.81 1015.92 1015.67 1015.34 1015.18 1015.14 1014.87 1014.32 1013.75 1012.95 1011.84 1011.06 1009.86 1008.83 1007.82 1007.36 1006.71
1013.08 1012.41 1011.85 1011.97 1011.75 1011.38 1011.43 1011.80 1011.71 1011.57 1011.71 1011.73 1011.81 1011.17 1011.12 1010.56 1011.15 1012.44 1013.55 1014.62 1015.32 1015.98 1016.37 1016.63 1016.74 1017.07 1017.17 1017.30 1017.34 1016.86 1016.45 1016.18 1016.09 1015.70 1015.01 1014.09 1013.10 1012.07 1011.18 1010.21 1009.40 1008.64 1007.85 1006.92
1012.33 1011.51 1011.36 1011.16 1011.29 1011.44 1011.30 1011.89 1012.22 1012.38 1012.51 1012.95 1012.94 1012.93 1012.38 1011.96 1012.88 1014.00 1015.11 1015.93 1016.94 1017.50 1017.82 1017.99 1018.32 1018.46 1018.60 1018.55 1018.29 1017.58 1017.17 1016.99 1016.55 1016.26 1015.76 1015.22 1014.15 1012.85 1011.70 1010.96 1009.81 1009.17 1008.55 1007.62
1011.64 1011.11 1011.10 1011.02 1011.17 1011.13 1011.38 1011.99 1012.96 1013.42 1013.87 1014.04 1012.47 1014.61 1013.34 1013.07 1014.81 1015.85 1016.73 1017.48 1018.28 1018.87 1019.32 1019.50 1019.52 1019.51 1019.20 1018.90 1018.36 1018.09 1017.78 1017.19 1016.98 1016.53 1016.02 1015.49 1014.42 1013.24 1011.92 1011.19 1010.22 1009.41 1008.59 1007.94
1011.61 1011.37 1011.34 1010.64 1010.53 1011.21 1011.81 1012.65 1013.53 1014.25 1014.99 1015.08 1013.79 1015.07 1015.10 1015.77 1016.65 1017.35 1018.06 1018.76 1019.40 1019.67 1020.08 1019.95 1019.89 1019.70 1019.56 1019.39 1019.13 1018.64 1017.99 1017.55 1017.06 1016.37 1015.78 1015.31 1014.49 1013.32 1012.24 1011.36 1010.50 1009.67 1008.72 1007.97
1011.73 1011.30 1010.67 1010.31 1010.67 1011.22 1012.28 1013.66 1014.95 1015.60 1015.65 1015.13 1014.89 1015.28 1016.40 1017.32 1018.00 1018.63 1019.35 1019.96 1020.43 1020.92 1021.22 1021.26 1021.12 1020.92 1020.67 1020.25 1019.70 1019.13 1018.39 1017.54 1017.03 1016.37 1015.59 1014.88 1014.08 1013.23 1012.32 1011.54 1010.61 1009.68 1008.54 1007.56
1012.30 1011.58 1010.70 1010.46 1010.60 1011.36 1012.56 1014.08 1015.50 1016.26 1016.54 1016.27 1016.37 1016.31 1018.05 1018.48 1019.13 1019.54 1020.24 1020.85 1021.39 1021.90 1022.40 1022.70 1022.54 1021.96 1021.41 1020.76 1020.07 1019.31 1018.57 1017.72 1016.91 1016.10 1015.20 1014.35 1013.46 1012.63 1011.83 1011.19 1010.43 1009.48 1008.45 1007.42
1012.28 1012.00 1011.59 1011.58 1011.63 1012.15 1013.20 1014.13 1015.13 1016.27 1017.26 1017.31 1016.77 1017.49 1018.80 1019.22 1020.09 1020.64 1021.28 1021.86 1022.52 1023.04 1023.25 1023.39 1022.99 1022.65 1021.85 1020.93 1020.12 1019.34 1018.48 1017.71 1016.86 1015.93 1014.90 1013.76 1012.73 1011.83 1011.05 1010.45 1009.72 1008.81 1007.79 1006.82
1012.42 1012.75 1012.40 1012.24 1012.25 1012.64 1013.42 1014.52 1015.81 1016.96 1017.92 1017.77 1017.41 1018.02 1019.23 1020.42 1021.13 1021.57 1021.95 1022.52 1023.27 1023.96 1024.06 1023.88 1023.68 1022.95 1021.93 1021.22 1020.46 1019.63 1018.88 1018.11 1017.05 1015.79 1014.59 1013.36 1012.08 1010.91 1009.98 1009.20 1008.43 1007.71 1006.89 1006.23
1012.82 1013.54 1013.71 1013.46 1013.43 1013.59 1014.19 1014.61 1015.71 1016.95 1018.03 1018.58 1018.93 1019.70 1020.26 1021.27 1021.91 1022.25 1022.73 1023.12 1023.81 1024.30 1024.51 1024.48 1023.85 1023.08 1022.56 1021.77 1020.79 1019.98 1019.22 1018.18 1016.93 1015.81 1014.51 1013.13 1011.89 1010.77 1009.81 1008.78 1007.90 1007.11 1006.02 1005.23
1013.93 1014.38 1014.97 1014.75 1014.38 1014.03 1014.43 1014.68 1015.65 1016.76 1017.74 1018.47 1019.33 1020.08 1021.03 1021.70 1022.08 1022.62 1023.35 1023.77 1024.42 1024.98 1025.33 1024.94 1024.41 1023.80 1022.93 1021.97 1021.00 1020.25 1019.28 1018.29 1017.51 1016.23 1014.83 1013.60 1012.35 1011.20 1010.08 1009.16 1008.28 1007.32 1005.99 1004.13
1014.45 1015.40 1016.24 1015.82 1015.16 1014.85 1015.19 1015.57 1016.12 1016.41 1017.18 1018.37 1019.95 1020.71 1021.42 1021.90 1022.57 1023.29 1024.02 1024.55 1025.11 1025.57 1025.51 1025.04 1024.65 1023.99 1023.36 1022.61 1021.77 1021.06 1020.33 1019.26 1018.08 1016.78 1015.56 1014.27 1012.89 1011.79 1010.82 1009.94 1009.20 1008.35 1007.17 1006.17
1015.20 1016.44 1016.99 1017.18 1016.86 1016.67 1016.42 1016.19 1016.21 1016.90 1017.89 1018.25 1019.14 1020.25 1021.34 1021.99 1022.86 1023.85 1024.60 1025.24 1025.66 1025.79 1025.60 1025.50 1024.99 1024.78 1024.23 1023.57 1022.86 1022.00 1021.04 1019.94 1018.73 1017.57 1016.32 1015.05 1013.71 1012.73 1011.88 1011.01 1010.54 1009.73 1008.35 1007.46
1016.30 1017.37 1017.72 1017.70 1017.44 1017.17 1016.74 1016.47 1016.42 1016.85 1016.99 1017.89 1018.77 1019.86 1020.92 1022.05 1023.34 1024.42 1025.15 1025.62 1025.86 1025.98 1026.11 1026.04 1025.79 1025.63 1025.11 1024.59 1023.75 1022.70 1021.63 1020.53 1019.56 1018.43 1017.19 1016.05 1014.93 1014.01 1013.32 1012.46 1011.88 1010.97 1009.57 1009.13
1016.92 1018.00 1018.42 1018.61 1017.74 1017.21 1016.67 1016.24 1016.26 1016.29 1016.61 1017.26 1018.41 1019.86 1020.93 1022.52 1023.81 1024.87 1025.50 1026.01 1026.30 1026.61 1026.88 1026.81 1026.66 1026.42 1026.04 1025.31 1024.51 1023.42 1022.48 1021.56 1020.58 1019.42 1018.42 1017.41 1016.34 1015.08 1014.24 1013.52 1013.44 1012.18 1011.43 1011.04
1017.42 1018.49 1019.19 1018.74 1017.50 1016.66 1016.36 1015.49 1015.35 1015.37 1015.79 1016.69 1018.11 1019.07 1021.07 1022.82 1024.18 1025.12 1025.87 1026.46 1026.92 1027.30 1027.59 1027.53 1027.32 1027.23 1026.81 1026.02 1025.20 1024.24 1023.42 1022.61 1021.56 1020.72 1019.80 1018.86 1017.95 1017.05 1016.10 1015.40 1014.46 1013.72 1012.56 1013.17
1017.05 1018.49 1019.03 1018.77 1018.00 1016.97 1015.57 1015.14 1015.08 1015.35 1015.84 1016.79 1018.32 1019.91 1021.29 1022.87 1024.52 1025.60 1026.39 1026.87 1027.48 1027.95 1028.29 1028.15 1028.15 1027.89 1027.38 1026.64 1025.80 1025.11 1024.21 1023.26 1022.48 1021.69 1020.90 1020.18 1019.48 1018.71 1017.98 1017.01 1016.11 1015.71 1015.44 1014.97
1016.20 1017.74 1018.71 1018.55 1017.48 1015.99 1015.38 1015.29 1015.35 1015.50 1016.10 1016.94 1018.44 1020.27 1022.04 1023.56 1024.76 1026.11 1026.79 1027.41 1027.99 1028.52 1028.78 1028.83 1028.74 1028.45 1027.93 1027.17 1026.43 1025.77 1024.86 1024.17 1023.42 1022.70 1022.09 1021.40 1020.85 1020.16 1019.49 1018.55 1017.95 1017.57 1016.98 1016.71
1016.02 1016.85 1018.23 1017.80 1017.22 1016.05 1015.34 1015.03 1015.27 1015.73 1016.29 1016.73 1018.27 1020.25 1022.02 1023.50 1024.60 1026.13 1026.99 1027.73 1028.43 1028.97 1029.19 1029.26 1029.17 1028.86 1028.34 1027.64 1026.94 1026.36 1025.85 1025.19 1024.59 1024.13 1023.67 1023.14 1022.38 1021.80 1021.17 1020.49 1019.62 1018.95 1018.41 1018.19
1015.79 1016.95 1017.31 1017.86 1017.46 1015.84 1014.98 1015.23 1015.63 1016.70 1016.91 1017.04 1018.56 1020.22 1022.07 1023.48 1024.37 1025.68 1027.03 1028.00 1028.56 1029.02 1029.31 1029.31 1029.23 1028.99 1028.63 1028.15 1027.55 1026.90 1026.64 1026.06 1025.72 1025.03 1024.61 1024.00 1023.26 1022.70 1022.32 1021.61 1020.93 1020.37 1019.64 1019.17
1014.43 1016.00 1016.69 1017.45 1017.43 1016.54 1015.67 1015.90 1016.31 1016.57 1017.00 1017.77 1019.02 1020.61 1022.49 1024.04 1025.26 1026.26 1027.31 1027.97 1028.51 1028.97 1029.25 1029.29 1029.29 1029.10 1028.79 1028.37 1028.04 1027.64 1027.14 1026.84 1026.06 1025.56 1025.21 1025.02 1024.33 1023.82 1023.25 1022.59 1022.04 1021.55 1021.03 1020.52
1014.22 1014.39 1015.39 1016.43 1016.77 1016.65 1016.49 1016.53 1016.61 1016.92 1017.87 1019.01 1019.84 1021.35 1022.51 1024.33 1025.57 1026.54 1027.30 1027.84 1028.31 1028.66 1029.06 1029.12 1029.27 1029.30 1029.06 1028.67 1028.19 1028.13 1027.77 1027.20 1026.69 1026.28 1026.03 1025.66 1025.40 1024.88 1024.47 1023.98 1023.51 1022.90 1022.51 1022.08
1014.05 1014.27 1015.40 1016.74 1017.24 1017.22 1017.14 1017.17 1017.43 1017.83 1018.65 1019.68 1020.67 1021.77 1022.90 1024.20 1025.59 1026.44 1026.99 1027.52 1028.04 1028.43 1028.75 1029.10 1029.41 1029.59 1029.47 1029.32 1028.86 1028.69 1028.06 1027.47 1027.25 1027.03 1026.73 1026.22 1026.14 1026.05 1025.61 1025.30 1024.85 1024.45 1024.10 1023.78
1014.15 1014.82 1015.85 1016.98 1017.38 1017.65 1017.74 1018.04 1018.37 1018.96 1019.50 1020.55 1021.59 1022.39 1023.27 1024.24 1025.43 1026.11 1026.91 1027.41 1027.78 1028.15 1028.39 1028.78 1029.22 1029.58 1029.79 1029.72 1029.51 1029.01 1028.56 1028.15 1027.85 1027.82 1027.62 1027.20 1026.77 1026.38 1026.30 1026.05 1025.77 1025.47 1025.22 1025.10
1014.36 1014.93 1015.69 1016.17 1016.23 1016.83 1017.63 1018.39 1018.80 1019.35 1020.10 1020.84 1021.60 1022.81 1023.77 1024.29 1025.11 1025.89 1026.64 1027.03 1027.58 1028.09 1028.49 1028.89 1029.34 1029.69 1030.07 1030.26 1030.00 1029.70 1029.26 1028.85 1028.54 1028.45 1028.17 1027.91 1027.59 1027.29 1026.96 1026.73 1026.43 1025.97 1026.04 1025.97
Wind_Speed
5 3 7 11 13 13 13 11 10 8 8 13 10 15 7 8 6 7 7 6 18 12 12 14 16 16 16 16 17 17 18 17 14 11 12 12 12 12 11 9 16 12 12 16
6 10 15 14 15 14 8 8 11 11 7 9 11 16 9 6 7 7 8 14 12 12 14 15 16 16 16 16 17 17 16 16 14 11 10 10 11 10 12 12 12 13 13 11
11 11 10 13 12 15 7 6 8 15 6 5 8 11 9 9 8 17 17 14 15 15 14 15 16 16 14 16 16 16 17 16 14 14 12 11 11 11 10 10 11 12 14 15
11 13 15 10 9 9 4 6 12 10 7 6 5 8 12 15 5 15 13 13 14 14 14 15 15 15 14 14 14 15 15 16 14 15 13 16 12 13 11 12 12 14 15 15
9 5 5 6 5 5 4 6 5 5 7 6 18 1 11 13 9 10 12 14 14 14 15 15 15 15 15 15 16 14 15 15 15 15 14 12 15 12 12 13 17 16 15 14
13 9 8 8 3 2 6 5 7 6 1 6 18 7 3 3 4 9 12 14 15 15 17 18 18 18 17 16 15 15 15 15 16 16 15 15 16 16 14 13 14 13 12 11
8 14 13 11 5 3 2 3 4 4 1 9 7 8 3 10 12 11 11 12 13 13 13 14 16 16 15 16 15 14 16 17 16 16 16 16 16 16 17 15 13 17 13 12
3 8 5 6 7 9 6 5 4 4 3 10 11 5 6 12 12 11 12 12 13 13 12 12 13 12 13 15 15 16 16 17 17 17 17 15 16 11 11 14 13 14 14 14
4 5 4 7 4 5 1 2 2 2 9 10 4 7 6 9 11 10 10 10 10 11 11 12 13 13 14 16 18 17 17 17 17 17 15 15 15 15 13 16 15 13 16 14
1 3 3 2 1 3 6 3 4 3 4 7 5 3 3 4 7 9 10 9 9 9 11 12 12 14 15 16 16 15 16 17 16 16 14 13 14 14 14 14 16 17 17 18
3 5 3 5 1 4 3 2 4 6 4 4 3 7 4 3 2 5 7 9 10 11 11 11 12 14 15 15 15 14 15 17 17 17 15 14 12 12 11 9 10 12 13 20
2 2 2 5 9 13 6 6 6 5 7 5 6 6 4 5 2 6 6 8 10 10 7 9 11 13 14 16 16 15 17 17 16 15 14 13 13 13 11 11 12 12 13 12
2 1 3 7 6 5 3 4 6 3 3 9 4 5 6 5 5 5 5 7 8 9 9 10 12 15 16 16 16 14 15 16 16 14 14 14 15 15 15 14 14 13 14 14
8 2 6 7 3 5 6 10 6 3 4 4 7 5 8 6 3 1 5 6 6 8 12 12 13 14 15 15 15 14 16 16 15 16 15 16 17 16 16 16 16 15 16 18
5 3 1 5 8 11 12 13 12 7 9 5 5 4 9 7 7 4 5 5 8 11 12 12 13 13 15 15 15 15 16 17 16 16 17 18 16 16 15 16 16 17 19 18
1 2 3 5 11 14 18 15 13 11 9 2 6 4 10 11 8 6 5 6 8 10 11 12 13 14 14 15 15 15 17 17 17 16 18 17 18 18 18 18 16 18 20 19
5 5 3 6 7 7 8 14 13 8 6 5 6 6 14 12 8 6 6 7 8 9 10 11 12 12 12 13 15 15 15 14 16 16 17 19 17 17 17 16 16 20 22 18
6 6 3 4 5 5 6 3 4 4 5 11 12 13 12 13 10 8 6 6 8 8 9 9 9 10 11 12 13 13 13 15 16 17 17 17 17 18 17 17 19 16 16 18
7 5 2 3 3 4 1 2 3 3 5 9 14 15 15 14 13 8 8 9 7 6 5 5 6 8 9 10 11 11 13 14 16 18 18 18 18 17 17 18 18 16 15 16
7 6 5 2 4 4 3 4 5 1 5 12 17 17 16 14 4 4 9 9 8 4 2 3 4 5 7 10 9 8 11 13 14 13 15 14 15 15 15 15 15 14 14 15
7 5 12 6 4 5 5 6 8 2 5 13 16 16 16 6 1 14 12 9 7 3 3 2 3 3 4 6 6 9 7 12 9 8 9 13 14 16 14 14 15 14 15 15
8 7 4 5 5 8 3 4 5 3 4 7 13 13 11 14 13 12 9 7 7 6 3 2 3 4 5 6 5 7 11 7 7 7 6 10 12 12 12 15 14 16 15 16
4 6 5 4 3 1 2 3 1 4 5 3 9 12 19 16 12 11 10 8 6 5 4 2 3 4 5 6 7 10 9 6 7 9 7 6 9 9 10 12 13 12 14 13
1 1 4 4 4 5 3 3 6 7 10 10 13 15 15 16 12 9 8 8 6 4 4 5 4 5 7 6 8 8 10 9 6 9 8 7 4 8 7 6 8 10 11 11
5 5 6 3 4 4 2 6 10 12 15 14 13 13 15 15 12 9 8 7 6 4 3 4 5 6 7 7 6 7 10 10 9 5 8 7 7 6 3 4 5 8 11 14
3 6 5 7 11 5 7 10 13 14 13 13 16 14 11 12 12 11 9 8 7 5 6 8 8 9 9 8 9 9 9 10 9 9 7 8 7 7 7 7 7 16 19 21
Wind_Direction
209 165 230 226 222 231 253 278 296 300 348 338 315 291 292 303 328 310 295 37 87 75 59 49 46 36 28 24 19 13 8 5 2 355 348 338 327 321 315 307 315 277 230 219
261 249 238 238 258 262 280 305 302 296 326 296 300 294 317 293 297 334 339 76 68 59 49 42 36 32 25 19 13 9 6 2 357 345 332 324 317 309 308 304 296 283 289 231
234 249 269 254 267 242 248 252 284 290 302 308 327 301 325 313 350 79 62 59 55 47 43 34 31 28 19 16 7 3 358 353 346 341 330 323 313 310 313 314 315 314 319 295
264 244 252 281 299 296 281 338 326 308 345 285 100 296 301 299 1 70 62 54 45 36 35 31 23 20 17 6 357 354 350 341 332 336 332 322 310 304 304 302 302 310 311 306
242 294 307 293 297 271 295 37 359 338 328 355 292 340 268 292 63 61 51 46 36 33 27 20 19 11 3 360 356 349 337 330 330 320 318 314 303 300 302 296 300 299 301 299
268 286 279 258 199 81 352 20 11 331 336 269 272 256 326 30 52 50 42 38 33 25 14 12 7 4 359 353 345 339 331 327 321 314 310 302 295 298 296 296 297 297 294 292
268 250 249 244 215 147 61 36 334 330 298 232 289 316 113 91 65 51 47 33 28 29 20 5 2 357 350 345 341 334 331 324 320 311 305 298 292 290 289 291 291 291 291 287
265 325 346 358 199 180 171 137 180 248 293 299 302 238 103 78 58 43 54 34 29 24 14 8 359 351 344 341 338 337 332 326 321 315 305 297 291 282 279 276 274 276 278 285
207 257 82 50 47 82 70 185 207 330 286 280 235 106 74 54 42 33 30 39 30 21 10 1 357 351 345 343 341 339 336 332 325 316 306 298 290 283 274 269 266 267 271 275
40 343 306 351 294 214 150 154 34 342 291 258 254 248 137 25 11 11 13 34 39 27 8 355 351 349 351 344 340 342 340 334 326 324 318 304 295 288 277 265 261 260 263 268
91 126 273 22 232 253 258 206 204 175 189 233 285 270 155 121 17 9 12 23 29 22 2 351 350 353 346 339 342 349 343 340 343 337 330 332 333 331 336 330 319 327 290 265
55 121 267 242 290 281 287 246 201 170 233 247 260 252 121 155 126 53 14 11 25 29 348 350 354 351 347 352 346 352 348 347 344 340 343 349 355 354 355 1 353 348 347 15
103 172 10 317 331 2 38 359 353 334 129 219 221 263 177 183 87 59 32 26 20 19 4 6 3 3 351 354 345 355 350 347 348 347 354 2 9 10 7 14 11 12 18 25
85 201 167 229 218 303 304 301 288 289 230 217 220 165 181 173 176 60 45 37 34 27 19 11 11 1 352 356 346 352 354 354 353 357 3 9 15 14 16 23 23 25 34 36
111 201 152 277 281 281 274 263 266 246 256 197 210 144 168 136 127 106 73 42 40 32 23 12 11 0 353 354 350 359 359 359 356 2 7 12 11 18 22 29 30 31 41 39
122 246 84 293 275 254 253 255 259 246 255 215 154 131 128 123 121 112 71 54 44 37 24 15 12 0 354 355 353 0 2 3 2 8 10 7 12 16 20 29 28 41 42 37
159 142 90 265 268 286 265 230 231 238 212 174 221 149 145 139 130 103 88 67 54 41 25 19 12 3 350 353 358 2 1 1 12 12 14 14 13 18 18 19 28 35 41 29
148 129 147 270 326 244 239 352 311 103 91 104 109 138 142 130 115 104 80 86 65 44 30 24 5 1 354 354 4 1 5 15 16 19 18 20 16 20 19 24 27 31 37 42
136 135 209 206 224 254 211 216 177 166 212 153 142 134 129 129 117 94 103 90 82 59 43 26 358 358 355 360 1 4 12 19 21 24 20 18 19 20 18 24 28 27 34 40
147 140 151 284 262 281 199 187 127 314 271 163 143 147 153 160 158 142 127 111 94 78 55 21 340 360 10 0 355 5 14 20 20 17 24 23 27 26 25 24 24 27 35 37
163 170 217 225 255 272 135 159 132 161 249 144 150 153 159 167 31 131 124 122 122 136 103 12 341 356 344 338 349 19 3 20 350 2 23 26 27 32 27 30 30 27 30 34
167 162 185 192 232 243 36 97 199 208 43 136 147 150 130 119 116 120 128 129 137 143 114 57 27 3 348 350 11 15 22 335 350 356 13 31 28 31 26 30 30 31 31 34
176 181 176 168 195 149 3 94 112 100 120 92 114 131 131 130 135 142 144 134 137 156 148 135 80 14 1 4 23 22 357 354 6 17 12 34 33 26 31 34 33 35 34 35
63 130 112 105 188 173 91 89 79 108 111 108 120 130 134 135 146 147 140 138 130 123 131 159 113 57 38 18 22 17 6 4 25 23 9 9 37 40 27 36 39 44 39 35
198 133 128 80 130 108 209 119 121 108 114 118 123 130 135 136 139 131 125 130 143 158 138 110 101 82 58 30 14 17 18 9 17 19 20 12 19 25 24 45 60 55 55 51
178 178 160 214 185 160 161 143 134 128 132 132 131 132 134 135 134 139 155 163 166 160 123 95 81 72 56 37 18 10 29 23 26 25 32 26 24 23 32 32 30 55 66 59